• In Uzbekistan
  • List of Countries
  • For 7 days
  • Water Temperature
  • Satellite Maps
  • Weather Map
  • Weather Widgets
  • user-avatar
    Login

    Hourly Weather Igls

    Today, 6 December, Tuesday

    Time Temperature Precipitation Wind Pressure Humidity
    00:00 -6°C° 0 mm 1 mps 688 mmHg 67%
    01:00 -4°C° 0 mm 1 mps 688 mmHg 65%
    02:00 -4°C° 0 mm 1 mps 688 mmHg 63%
    03:00 -3°C° 0 mm 1 mps 688 mmHg 61%
    04:00 -3°C° 0 mm 1 mps 689 mmHg 60%
    05:00 -5°C° 0 mm 2 mps 689 mmHg 62%
    06:00 -5°C° 0 mm 2 mps 689 mmHg 63%
    07:00 -5°C° 0 mm 2 mps 689 mmHg 65%
    08:00 -1°C° 0 mm 1 mps 690 mmHg 64%
    09:00 +1°C° 0 mm 1 mps 691 mmHg 63%
    10:00 +3°C° 0 mm 1 mps 691 mmHg 62%
    11:00 +5°C° 0 mm 1 mps 691 mmHg 63%
    12:00 +6°C° 0 mm 1 mps 691 mmHg 63%
    13:00 +7°C° 0 mm 1 mps 691 mmHg 64%
    14:00 +5°C° 0 mm 1 mps 691 mmHg 68%
    15:00 +3°C° 0 mm 1 mps 691 mmHg 73%
    16:00 +1°C° 0 mm 1 mps 690 mmHg 77%
    17:00 0°C° 0 mm 1 mps 690 mmHg 76%
    18:00 -1°C° 0 mm 1 mps 691 mmHg 75%
    19:00 -2°C° 0 mm 1 mps 691 mmHg 73%
    20:00 -3°C° 0 mm 1 mps 691 mmHg 70%
    21:00 -3°C° 0 mm 1 mps 691 mmHg 66%
    22:00 -3°C° 0 mm 1 mps 691 mmHg 62%
    23:00 -3°C° 0 mm 1 mps 691 mmHg 60%

    Tomorrow, 7 December, Wednesday

    Time Temperature Precipitation Wind Pressure Humidity
    00:00 -3°C° 0 mm 1 mps 691 mmHg 57%
    01:00 -4°C° 0 mm 1 mps 691 mmHg 55%
    02:00 -3°C° 0 mm 1 mps 691 mmHg 54%
    03:00 -3°C° 0 mm 1 mps 691 mmHg 53%
    04:00 -3°C° 0 mm 1 mps 691 mmHg 52%
    05:00 -3°C° 0 mm 1 mps 691 mmHg 50%
    06:00 -4°C° 0 mm 1 mps 691 mmHg 49%
    07:00 -4°C° 0 mm 1 mps 691 mmHg 47%
    08:00 -1°C° 0 mm 1 mps 692 mmHg 49%
    09:00 +2°C° 0 mm 1 mps 692 mmHg 50%
    10:00 +5°C° 0 mm 1 mps 693 mmHg 51%
    11:00 +5°C° 0 mm 0 mps 693 mmHg 53%
    12:00 +6°C° 0 mm 0 mps 694 mmHg 55%
    13:00 +7°C° 0 mm 0 mps 694 mmHg 56%
    14:00 +5°C° 0 mm 0 mps 693 mmHg 59%
    15:00 +2°C° 0 mm 0 mps 692 mmHg 61%
    16:00 -1°C° 0 mm 0 mps 691 mmHg 63%
    17:00 0°C° 0 mm 1 mps 692 mmHg 62%
    18:00 -1°C° 0 mm 1 mps 692 mmHg 61%
    19:00 -1°C° 0 mm 1 mps 692 mmHg 60%
    20:00 -1°C° 0 mm 1 mps 692 mmHg 60%
    21:00 -1°C° 0 mm 1 mps 692 mmHg 59%
    22:00 -1°C° 0 mm 1 mps 692 mmHg 59%
    23:00 -1°C° 0 mm 1 mps 692 mmHg 58%

    Day after tomorrow, 8 December, Thursday

    Time Temperature Precipitation Wind Pressure Humidity
    00:00 0°C° 0 mm 1 mps 692 mmHg 58%
    01:00 0°C° 0 mm 1 mps 692 mmHg 57%
    02:00 0°C° 0 mm 1 mps 692 mmHg 58%
    03:00 0°C° 0 mm 1 mps 692 mmHg 58%
    04:00 0°C° 0 mm 1 mps 692 mmHg 58%
    05:00 -2°C° 0 mm 2 mps 692 mmHg 58%
    06:00 -2°C° 0 mm 2 mps 692 mmHg 58%
    07:00 -2°C° 0 mm 2 mps 692 mmHg 58%
    08:00 +2°C° 0 mm 1 mps 693 mmHg 58%
    09:00 +4°C° 0 mm 1 mps 694 mmHg 58%
    10:00 +6°C° 0 mm 1 mps 694 mmHg 59%
    11:00 +7°C° 0 mm 1 mps 694 mmHg 60%
    12:00 +9°C° 0 mm 1 mps 694 mmHg 62%
    13:00 +10°C° 0 mm 1 mps 694 mmHg 63%
    14:00 +7°C° 0 mm 1 mps 693 mmHg 64%
    15:00 +5°C° 0 mm 1 mps 692 mmHg 65%
    16:00 +2°C° 0 mm 1 mps 692 mmHg 65%
    17:00 +1°C° 0 mm 1 mps 692 mmHg 64%
    18:00 +1°C° 0 mm 1 mps 692 mmHg 62%
    19:00 0°C° 0 mm 1 mps 692 mmHg 61%
    20:00 +1°C° 0 mm 1 mps 692 mmHg 58%
    21:00 +1°C° 0 mm 1 mps 692 mmHg 56%
    22:00 +1°C° 0 mm 1 mps 693 mmHg 54%
    23:00 +2°C° 0 mm 1 mps 693 mmHg 53%

    9 December, Friday

    Time Temperature Precipitation Wind Pressure Humidity
    00:00 +2°C° 0 mm 1 mps 693 mmHg 52%
    01:00 +2°C° 0 mm 1 mps 693 mmHg 51%
    02:00 +2°C° 0 mm 1 mps 693 mmHg 49%
    03:00 +3°C° 0 mm 1 mps 693 mmHg 48%
    04:00 +3°C° 0 mm 1 mps 693 mmHg 47%
    05:00 +2°C° 0 mm 1 mps 693 mmHg 46%
    06:00 +2°C° 0 mm 1 mps 693 mmHg 44%
    07:00 -1°C° 0 mm 2 mps 693 mmHg 43%
    08:00 +3°C° 0 mm 1 mps 693 mmHg 45%
    09:00 +5°C° 0 mm 1 mps 694 mmHg 48%
    10:00 +7°C° 0 mm 1 mps 694 mmHg 50%
    11:00 +8°C° 0 mm 1 mps 694 mmHg 52%
    12:00 +8°C° 0 mm 0 mps 694 mmHg 55%
    13:00 +9°C° 0 mm 0 mps 693 mmHg 58%
    14:00 +7°C° 0 mm 0 mps 692 mmHg 56%
    15:00 +4°C° 0 mm 0 mps 691 mmHg 53%
    16:00 +1°C° 0 mm 0 mps 690 mmHg 51%
    17:00 0°C° 0 mm 0 mps 690 mmHg 53%
    18:00 0°C° 0 mm 0 mps 690 mmHg 56%
    19:00 -1°C° 0 mm 0 mps 690 mmHg 58%
    20:00 +1°C° 0 mm 1 mps 690 mmHg 55%
    21:00 +2°C° 0 mm 1 mps 690 mmHg 51%
    22:00 +3°C° 0 mm 1 mps 691 mmHg 48%
    23:00 +2°C° 0 mm 2 mps 691 mmHg 54%

    10 December, Saturday

    Time Temperature Precipitation Wind Pressure Humidity
    00:00 +2°C° 0 mm 2 mps 691 mmHg 59%
    01:00 +3°C° 0 mm 2 mps 691 mmHg 65%
    02:00 +3°C° 0 mm 2 mps 690 mmHg 66%
    03:00 +3°C° 0 mm 2 mps 690 mmHg 67%
    04:00 +2°C° 0 mm 2 mps 690 mmHg 69%
    05:00 +2°C° 0 mm 2 mps 690 mmHg 68%
    06:00 +2°C° 0 mm 2 mps 690 mmHg 68%
    07:00 +2°C° 0 mm 2 mps 690 mmHg 68%
    08:00 +3°C° 0 mm 2 mps 690 mmHg 66%
    09:00 +5°C° 0 mm 2 mps 691 mmHg 65%
    10:00 +7°C° 0 mm 1 mps 691 mmHg 64%
    11:00 +9°C° 0 mm 1 mps 691 mmHg 66%
    12:00 +10°C° 0 mm 1 mps 690 mmHg 67%
    13:00 +11°C° 0 mm 1 mps 690 mmHg 69%
    14:00 +9°C° 0 mm 1 mps 689 mmHg 70%
    15:00 +6°C° 0 mm 1 mps 689 mmHg 72%
    16:00 +4°C° 0 mm 1 mps 688 mmHg 74%
    17:00 +4°C° 0 mm 1 mps 688 mmHg 73%
    18:00 +3°C° 0 mm 1 mps 688 mmHg 73%
    19:00 +3°C° 0 mm 1 mps 687 mmHg 72%
    20:00 +3°C° 0 mm 1 mps 687 mmHg 69%
    21:00 +2°C° 0 mm 2 mps 687 mmHg 67%
    22:00 +2°C° 0 mm 2 mps 687 mmHg 64%
    23:00 +2°C° 0 mm 2 mps 687 mmHg 64%

    11 December, Sunday

    Time Temperature Precipitation Wind Pressure Humidity
    00:00 +2°C° 0 mm 2 mps 687 mmHg 65%
    01:00 +2°C° 0 mm 2 mps 687 mmHg 66%
    02:00 +2°C° 0 mm 2 mps 687 mmHg 65%
    03:00 +2°C° 0 mm 2 mps 686 mmHg 65%
    04:00 +2°C° 0 mm 2 mps 686 mmHg 65%
    05:00 +1°C° 0 mm 2 mps 686 mmHg 65%
    06:00 +1°C° 0 mm 2 mps 685 mmHg 64%
    07:00 +1°C° 0 mm 2 mps 685 mmHg 63%
    08:00 +2°C° 0 mm 2 mps 685 mmHg 63%
    09:00 +4°C° 0 mm 2 mps 685 mmHg 62%
    10:00 +6°C° 0 mm 1 mps 686 mmHg 62%
    11:00 +7°C° 0 mm 1 mps 685 mmHg 64%
    12:00 +9°C° 0 mm 1 mps 685 mmHg 66%
    13:00 +10°C° 0 mm 1 mps 684 mmHg 67%
    14:00 +7°C° 0 mm 1 mps 684 mmHg 71%
    15:00 +5°C° 0 mm 1 mps 683 mmHg 74%
    16:00 +3°C° 0 mm 1 mps 682 mmHg 77%
    17:00 +3°C° 0.1 mm 1 mps 682 mmHg 78%
    18:00 +4°C° 0.1 mm 1 mps 683 mmHg 78%
    19:00 +4°C° 0.1 mm 2 mps 683 mmHg 79%
    20:00 +4°C° 0.7 mm 2 mps 684 mmHg 82%
    21:00 +5°C° 0.7 mm 1 mps 684 mmHg 86%
    22:00 +5°C° 0.7 mm 1 mps 684 mmHg 90%
    23:00 +4°C° 0.6 mm 2 mps 685 mmHg 92%
    Show more